| time (UTC) | temp F | wind direction | speed MPH | gust MPH | rain 1hr in | rain 24hr in | rain mn in | humidity % | barometer mb |
| 20260508003106 | 66 | 216 | 8.0 | 13.0 | 0.00 | 0.00 | 0.00 | 10 | 1018.4 |
| 20260508001556 | 67 | 206 | 5.0 | 11.0 | 0.00 | 0.00 | 0.00 | 11 | 1018.4 |
| 20260508000047 | 66 | 261 | 9.0 | 14.0 | 0.00 | 0.00 | 0.00 | 11 | 1018.5 |
| 20260507234542 | 66 | 220 | 10.0 | 15.0 | 0.00 | 0.00 | 0.00 | 13 | 1018.5 |
| 20260507233038 | 66 | 291 | 12.0 | 20.0 | 0.00 | 0.00 | 0.00 | 14 | 1018.5 |
| 20260507231534 | 66 | 222 | 9.0 | 17.0 | 0.00 | 0.00 | 0.00 | 15 | 1018.6 |
| 20260507230029 | 65 | 234 | 10.0 | 17.0 | 0.00 | 0.00 | 0.00 | 16 | 1018.6 |
| 20260507224525 | 65 | 247 | 8.0 | 15.0 | 0.00 | 0.00 | 0.00 | 18 | 1018.6 |
| 20260507223020 | 66 | 248 | 8.0 | 15.0 | 0.00 | 0.00 | 0.00 | 18 | 1018.7 |
| 20260507221515 | 65 | 327 | 6.0 | 15.0 | 0.00 | 0.00 | 0.00 | 16 | 1018.9 |
| 20260507220012 | 65 | 81 | 3.0 | 18.0 | 0.00 | 0.00 | 0.00 | 18 | 1019.1 |
| 20260507214506 | 65 | 302 | 11.0 | 15.0 | 0.00 | 0.00 | 0.00 | 15 | 1019.3 |
| 20260507213003 | 65 | 319 | 8.0 | 16.0 | 0.00 | 0.00 | 0.00 | 14 | 1019.4 |
| 20260507211626 | 64 | 343 | 8.0 | 12.0 | 0.00 | 0.00 | 0.00 | 12 | 1019.7 |
| 20260507210054 | 64 | 313 | 8.0 | 14.0 | 0.00 | 0.00 | 0.00 | 12 | 1019.8 |
| 20260507204557 | 64 | 280 | 9.0 | 17.0 | 0.00 | 0.00 | 0.00 | 10 | 1020.0 |
| 20260507203045 | 63 | 34 | 3.0 | 16.0 | 0.00 | 0.00 | 0.00 | 9 | 1020.2 |
| 20260507201541 | 63 | 311 | 6.0 | 19.0 | 0.00 | 0.00 | 0.00 | 8 | 1020.4 |
| 20260507200038 | 62 | 330 | 4.0 | 16.0 | 0.00 | 0.00 | 0.00 | 9 | 1020.5 |
| 20260507194538 | 62 | 307 | 7.0 | 13.0 | 0.00 | 0.00 | 0.00 | 9 | 1020.6 |
| 20260507193035 | 62 | 317 | 9.0 | 18.0 | 0.00 | 0.00 | 0.00 | 9 | 1020.8 |
| 20260507191528 | 62 | 310 | 10.0 | 18.0 | 0.00 | 0.00 | 0.00 | 10 | 1020.8 |
| 20260507190028 | 61 | 341 | 12.0 | 20.0 | 0.00 | 0.00 | 0.00 | 11 | 1020.9 |
| 20260507184523 | 60 | 310 | 8.0 | 17.0 | 0.00 | 0.00 | 0.00 | 14 | 1021.1 |
| 20260507183022 | 59 | 308 | 10.0 | 19.0 | 0.00 | 0.00 | 0.00 | 15 | 1021.1 |
| 20260507181516 | 59 | 291 | 11.0 | 18.0 | 0.00 | 0.00 | 0.00 | 16 | 1021.3 |
| 20260507180014 | 58 | 318 | 7.0 | 21.0 | 0.00 | 0.00 | 0.00 | 23 | 1021.4 |
| 20260507174510 | 56 | 308 | 15.0 | 24.0 | 0.00 | 0.00 | 0.00 | 26 | 1021.6 |
| 20260507173005 | 54 | 338 | 13.0 | 20.0 | 0.00 | 0.00 | 0.00 | 29 | 1021.8 |
| 20260507171500 | 53 | 13 | 10.0 | 19.0 | 0.00 | 0.00 | 0.00 | 35 | 1022.1 |
| 20260507170057 | 52 | 4 | 12.0 | 21.0 | 0.00 | 0.00 | 0.00 | 37 | 1022.2 |
| 20260507164553 | 50 | 345 | 13.0 | 22.0 | 0.00 | 0.00 | 0.00 | 39 | 1022.2 |
| 20260507163048 | 49 | 354 | 6.0 | 14.0 | 0.00 | 0.00 | 0.00 | 44 | 1022.4 |
| 20260507161545 | 47 | 32 | 4.0 | 18.0 | 0.00 | 0.00 | 0.00 | 49 | 1022.4 |
| 20260507160040 | 45 | 345 | 11.0 | 18.0 | 0.00 | 0.00 | 0.00 | 50 | 1022.6 |
| 20260507154535 | 44 | 18 | 9.0 | 17.0 | 0.00 | 0.00 | 0.00 | 49 | 1022.7 |
| 20260507153034 | 44 | 341 | 10.0 | 21.0 | 0.00 | 0.00 | 0.00 | 51 | 1022.7 |
| 20260507151528 | 44 | 298 | 10.0 | 16.0 | 0.00 | 0.00 | 0.00 | 50 | 1022.7 |
| 20260507150022 | 44 | 317 | 7.0 | 12.0 | 0.00 | 0.00 | 0.00 | 54 | 1022.7 |
| 20260507144520 | 42 | 310 | 5.0 | 15.0 | 0.00 | 0.00 | 0.00 | 58 | 1022.9 |
| 20260507143013 | 42 | 329 | 5.0 | 11.0 | 0.00 | 0.00 | 0.00 | 60 | 1023.1 |
| 20260507141509 | 42 | 359 | 8.0 | 12.0 | 0.00 | 0.00 | 0.00 | 62 | 1023.2 |
| 20260507140005 | 41 | 359 | 4.0 | 11.0 | 0.00 | 0.00 | 0.00 | 64 | 1023.3 |
| 20260507134503 | 41 | 314 | 1.0 | 3.0 | 0.00 | 0.00 | 0.00 | 67 | 1023.2 |
| 20260507133057 | 39 | 276 | 1.0 | 4.0 | 0.00 | 0.00 | 0.00 | 70 | 1023.1 |
| 20260507131552 | 37 | 58 | 3.0 | 5.0 | 0.00 | 0.00 | 0.00 | 69 | 1023.2 |
| 20260507130048 | 36 | 72 | 2.0 | 5.0 | 0.00 | 0.00 | 0.00 | 73 | 1023.3 |
| 20260507124543 | 35 | 72 | 1.0 | 3.0 | 0.00 | 0.00 | 0.00 | 77 | 1023.3 |
| 20260507123039 | 34 | 72 | 2.0 | 4.0 | 0.00 | 0.00 | 0.00 | 77 | 1023.3 |
| 20260507121537 | 33 | 68 | 2.0 | 6.0 | 0.00 | 0.00 | 0.00 | 76 | 1023.3 |
| 20260507120034 | 34 | 73 | 2.0 | 5.0 | 0.00 | 0.00 | 0.00 | 76 | 1023.3 |
| 20260507114534 | 34 | 73 | 2.0 | 4.0 | 0.00 | 0.00 | 0.00 | 73 | 1023.2 |
| 20260507113039 | 33 | 73 | 2.0 | 5.0 | 0.00 | 0.00 | 0.00 | 73 | 1023.2 |
| 20260507111536 | 33 | 76 | 4.0 | 5.0 | 0.00 | 0.00 | 0.00 | 72 | 1023.2 |
| 20260507110030 | 33 | 81 | 4.0 | 6.0 | 0.00 | 0.00 | 0.00 | 71 | 1023.1 |
| 20260507104531 | 34 | 70 | 1.0 | 5.0 | 0.00 | 0.00 | 0.00 | 71 | 1023.2 |
| 20260507103027 | 34 | 91 | 2.0 | 6.0 | 0.00 | 0.00 | 0.00 | 70 | 1023.2 |
| 20260507101537 | 34 | 96 | 2.0 | 4.0 | 0.00 | 0.00 | 0.00 | 71 | 1023.2 |
| 20260507100030 | 35 | 107 | 2.0 | 4.0 | 0.00 | 0.00 | 0.00 | 73 | 1023.1 |
| 20260507094520 | 35 | 108 | 1.0 | 3.0 | 0.00 | 0.00 | 0.00 | 74 | 1023.3 |
| 20260507093026 | 35 | 108 | 1.0 | 3.0 | 0.00 | 0.00 | 0.00 | 73 | 1023.2 |
| 20260507091536 | 35 | 108 | 0.0 | 3.0 | 0.00 | 0.00 | 0.00 | 70 | 1023.2 |
| 20260507090013 | 35 | 108 | 0.0 | 2.0 | 0.00 | 0.00 | 0.00 | 70 | 1023.2 |
| 20260507084510 | 36 | 108 | 1.0 | 3.0 | 0.00 | 0.00 | 0.00 | 70 | 1023.0 |
| 20260507083014 | 36 | 108 | 0.0 | 2.0 | 0.00 | 0.00 | 0.00 | 67 | 1023.0 |
| 20260507081507 | 37 | 108 | 1.0 | 4.0 | 0.00 | 0.00 | 0.00 | 65 | 1023.0 |
| 20260507080006 | 37 | 108 | 1.0 | 2.0 | 0.00 | 0.00 | 0.00 | 61 | 1022.9 |
| 20260507074505 | 38 | 108 | 0.0 | 2.0 | 0.00 | 0.00 | 0.00 | 60 | 1023.0 |
| 20260507073110 | 38 | 108 | 2.0 | 4.0 | 0.00 | 0.00 | 0.00 | 60 | 1022.8 |
| 20260507071600 | 39 | 102 | 2.0 | 6.0 | 0.00 | 0.00 | 0.00 | 59 | 1022.6 |
| 20260507070137 | 39 | 21 | 5.0 | 9.0 | 0.00 | 0.00 | 0.00 | 63 | 1022.6 |
| 20260507064553 | 39 | 18 | 3.0 | 6.0 | 0.00 | 0.00 | 0.00 | 60 | 1022.5 |
| 20260507063049 | 40 | 66 | 3.0 | 5.0 | 0.00 | 0.00 | 0.00 | 57 | 1022.4 |
| 20260507061549 | 40 | 33 | 4.0 | 9.0 | 0.00 | 0.00 | 0.00 | 58 | 1022.2 |
| 20260507060045 | 40 | 29 | 2.0 | 6.0 | 0.00 | 0.00 | 0.00 | 57 | 1022.1 |
| 20260507054550 | 41 | 8 | 2.0 | 6.0 | 0.00 | 0.01 | 0.00 | 55 | 1022.0 |
| 20260507053045 | 41 | 70 | 2.0 | 4.0 | 0.00 | 0.01 | 0.00 | 58 | 1021.9 |
| 20260507051543 | 42 | 80 | 1.0 | 4.0 | 0.00 | 0.01 | 0.00 | 57 | 1021.9 |
| 20260507050041 | 42 | 78 | 1.0 | 6.0 | 0.00 | 0.01 | 0.00 | 57 | 1021.9 |
| 20260507044546 | 43 | 79 | 3.0 | 5.0 | 0.00 | 0.03 | 0.00 | 55 | 1021.8 |
| 20260507043042 | 44 | 84 | 1.0 | 4.0 | 0.00 | 0.03 | 0.00 | 53 | 1021.6 |
| 20260507041537 | 45 | 85 | 0.0 | 6.0 | 0.00 | 0.03 | 0.00 | 53 | 1021.4 |
| 20260507040034 | 46 | 347 | 2.0 | 4.0 | 0.00 | 0.03 | 0.00 | 48 | 1021.2 |
| 20260507034533 | 46 | 335 | 2.0 | 4.0 | 0.00 | 0.03 | 0.00 | 46 | 1021.0 |
| 20260507033033 | 47 | 269 | 2.0 | 8.0 | 0.00 | 0.03 | 0.00 | 46 | 1021.0 |
| 20260507031530 | 48 | 265 | 0.0 | 6.0 | 0.00 | 0.03 | 0.00 | 44 | 1020.6 |
| 20260507030027 | 49 | 209 | 3.0 | 5.0 | 0.00 | 0.08 | 0.00 | 42 | 1020.4 |
| 20260507024529 | 49 | 237 | 4.0 | 9.0 | 0.00 | 0.08 | 0.00 | 41 | 1020.1 |
| 20260507023025 | 49 | 248 | 6.0 | 11.0 | 0.00 | 0.08 | 0.00 | 39 | 1019.9 |
| 20260507021524 | 50 | 257 | 7.0 | 13.0 | 0.00 | 0.08 | 0.00 | 38 | 1019.7 |
| 20260507020024 | 51 | 273 | 11.0 | 17.0 | 0.00 | 0.18 | 0.00 | 36 | 1019.6 |
| 20260507014519 | 52 | 264 | 10.0 | 18.0 | 0.00 | 0.18 | 0.00 | 35 | 1019.4 |
| 20260507013018 | 53 | 252 | 11.0 | 19.0 | 0.00 | 0.18 | 0.00 | 36 | 1019.2 |
| 20260507011526 | 53 | 277 | 10.0 | 26.0 | 0.00 | 0.18 | 0.00 | 34 | 1019.1 |
| 20260507010016 | 53 | 295 | 16.0 | 28.0 | 0.00 | 0.18 | 0.00 | 33 | 1019.0 |
| 20260507004513 | 54 | 274 | 13.0 | 24.0 | 0.00 | 0.18 | 0.00 | 32 | 1018.6 |